CZ-4C DEB, 43629

Orbit data source: Space-Track

CZ-4C DEB, 43629 is space debris in SSO originally from a launch on Wed, 20 Nov 2013 UTC launched from the Taiyaun Space Center, China (TSC). Debris objects in space refer to the collection of defunct objects orbiting the Earth. Examples of debris include non-operational satellites, rocket bodies, and fragments generated from explosions, collisions, or faulty payload assembly.

Loading next visibility...
Identifier
43629, 2013-065F
Orbit
SSO
Country
Flag of CNCN / PRC
Related business
Manufacturer
SAST
Mission
Spacecraft
Bus & Motor
Unknown
Mass
Unknown
Launch date (UTC)
2013-11-20 (13 years ago)
Launch vehicle
Unknown
Launch site
Taiyaun Space Center, China (TSC)
Object type
Payload
Rocket body
Debris
Shape & HBR
Unknown shape, 0.1 m
Radar Cross Section
Small (<0.1 m²)

Expand to show TLE details & history
Last TLE update: 2 weeks ago

TLE from 2 weeks ago
0 CZ-4C DEB
1 43629U 13065F   26159.31902485  .00008146  00000-0  67945-2 0  9996
2 43629 100.8823 349.0017 0086880 129.6750 231.2104 13.86993483388514
Epoch: 2026-06-08T07:39Z
TLE epoch observation values (Epoch: 2026-06-08T07:39:23.747Z)
Latitude
-0.00001°
Longitude
-22.55483°
Altitude
982.145 km
Speed
7.34 km/s
True Right ascension
23h 16m 00s
True Declination
0° 00' 00"
Sunlit
Object was in daylight at epoch
Visualization orbit readout
Latitude
Unknown
Longitude
Unknown
Altitude
Unknown
Speed
Unknown
Apparent Right ascension
Unknown
Apparent Declination
Unknown
Sunlit
N/A
Visualization observer readout
Local Sidereal Time
21:28:05
Azimuth
Unknown
Elevation
Unknown
Doppler factor
Unknown
Orbital elements
Apogee altitude
1,000.053 km
Perigee altitude
872.954 km
Semi-major axis
7,314.64 km
Eccentricity
0.00869
Inclination
100.8823°
RAAN
349.0017°
Arg. of periapsis
129.675°
True anomaly
230.43967°
Mean anomaly
231.2104°
Eccentric anomaly
230.82451°
Mean motion
3.46939 °/min
Orbital period
103.76 mins
BSTAR
0.0067945
Loading maneuver chart data...
Computing Atmospheric mass density...
Loading historical data...
Loading historical data...
Loading historical data...
Loading historical data...
Loading historical data...
Loading historical data...
Loading historical data...

Documentation

Showing up to 5 results
|